Regional Weather Roundup
Issued by NWS

Home | Current Version | Previous Version | Text Only | Print | Product List | Glossary On
Versions: 1 2 3 4 5 6 7 8 9 10 11 12 13 14 15 16 17 18 19 20 21 22 23 24 25 26 27 28 29 30 31 32 33 34 35 36 37 38 39 40 41 42 43 44 45 46 47 48 49 50
000
ASUS43 KLOT 212010
RWRIL

ILLINOIS REGIONAL WEATHER ROUNDUP
NATIONAL WEATHER SERVICE CHICAGO/ROMEOVILLE IL
200 PM CST SUN DEC 21 2014

NOTE: "FAIR" INDICATES FEW OR NO CLOUDS BELOW 12,000 FEET WITH NO
SIGNIFICANT WEATHER AND/OR OBSTRUCTIONS TO VISIBILITY.

* THESE STATIONS ARE NOT UNDER NWS QUALITY CONTROL. THEY ALSO MAY NOT
  REPORT WEATHER SUCH AS PRECIPITATION OR FOG.

ILZ001-002-007-009-015-016-024-212100-
NORTHWEST ILLINOIS

CITY           SKY/WX    TMP DP  RH WIND       PRES   REMARKS
MOLINE         CLOUDY    41  33  73 S12       29.99F
STERLING*      CLOUDY    37  30  75 S9        30.03F WCI  31
SAVANNA*       CLOUDY    39  33  79 S12       30.00F WCI  32
$$

ILZ003-004-008-010-011-017-018-212100-
NORTH CENTRAL ILLINOIS

CITY           SKY/WX    TMP DP  RH WIND       PRES   REMARKS
ROCKFORD       CLOUDY    37  31  78 S17       30.05F WCI  27
FREEPORT*      CLOUDY    36  32  85 S15G22    30.02F WCI  27
ROCHELLE*      CLOUDY    36  32  87 S16       30.05F FOG     WCI  26
DE KALB*       CLOUDY    36  31  82 S15G22    30.05F WCI  27
PERU*          CLOUDY    40  33  77 S15       30.06F
$$

ILZ005-006-012>014-019>023-212100-
NORTHEAST ILLINOIS

CITY           SKY/WX    TMP DP  RH WIND       PRES   REMARKS
CHICAGO-OHARE  CLOUDY    36  28  73 S15       30.09F WCI  27
CHICAGO-MIDWAY CLOUDY    37  28  70 S14G22    30.11F WCI  28
AURORA         CLOUDY    38  30  73 S15       30.07F HAZE    WCI  29
LANSING*       CLOUDY    37  29  74 S12       30.13F WCI  29
JOLIET*        CLOUDY    37  30  74 S10       30.10F WCI  30
WAUKEGAN       CLOUDY    36  28  73 S14       30.07F WCI  27
DUPAGE AIRPORT CLOUDY    37  30  75 S16       30.07F WCI  28
KANKAKEE*      CLOUDY    38  31  75 S8        30.12F WCI  32
WHEELING       CLOUDY    37  28  70 S12       30.10F WCI  29
MORRIS*        CLOUDY    38  33  81 S13       30.09F WCI  30
ROMEOVILLE*    CLOUDY    37  30  76 S15       30.09F WCI  28
NORTHERLY ISL    N/A     36  28  73 S10         N/A  WCI  28
$$

LMZ740>746-212100-
SOUTHERN LAKE MICHIGAN

STATION/POSITION SKY/WX   TEMP    WIND        PRES    VSBY  WAVE
                          AIR SEA DIR/SP/G                  HT/PER
                          (F)     (DEG/KT/KT) (MB)    (MI)  (FT/S)
WAUKEGAN HARBOR            36     180/ 16/ 17   N/A
HARRISON CRIB              35     180/ 20/ 22   N/A
BURNHAM HARBOR             36     160/ 10/ 13   N/A
CALUMET HARBOR             35     150/  9/ 14 1018.7F
$$

ILZ025>027-034>036-040-047-049-050-058-095>099-212100-
WEST-CENTRAL ILLINOIS

CITY           SKY/WX    TMP DP  RH WIND       PRES   REMARKS
QUINCY         CLOUDY    44  35  70 S13       29.97F
GALESBURG*     CLOUDY    39  34  81 SE12G17   30.00F WCI  32
MACOMB*        CLOUDY    41  36  81 S17G23    30.03F
JACKSONVILLE*  CLOUDY    42  34  74 SE16      30.04F
PITTSFIELD*    CLOUDY    43  37  78 SE12      30.02F
$$

ILZ028>032-037-038-041>044-048-051>054-059>061-212100-
CENTRAL ILLINOIS

CITY           SKY/WX    TMP DP  RH WIND       PRES   REMARKS
PONTIAC        CLOUDY    39  33  79 S13       30.10F WCI  32
BLOOMINGTON    CLOUDY    36  32  85 S13       30.09F WCI  27
DECATUR        CLOUDY    37  30  75 S8        30.10F WCI  31
PEORIA         CLOUDY    40  31  70 S15       30.04F
LACON*         CLOUDY    38  30  74 S14       30.05F WCI  29
LINCOLN*       CLOUDY    38  32  80 S13       30.09F WCI  30
SPRINGFIELD    CLOUDY    39  31  72 SE15      30.07F WCI  31
TAYLORVILLE    CLOUDY    36  32  87 SE12      30.09F WCI  27
$$

ILZ033-039-045-046-055>057-062-063-212100-
EAST-CENTRAL ILLINOIS

CITY           SKY/WX    TMP DP  RH WIND       PRES   REMARKS
CHAMPAIGN      CLOUDY    37  30  75 S10       30.12F WCI  30
DANVILLE*      MOSUNNY   39  31  72 S8        30.10F WCI  34
RANTOUL*       CLOUDY    38  32  77 S12       30.11F WCI  31
MATTOON        MOSUNNY   41  30  65 SE10      30.11F
PARIS*         SUNNY     39  32  74 SE7       30.13F WCI  34
$$

ILZ079-100>102-212100-
SOUTHWEST ILLINOIS

CITY           SKY/WX    TMP DP  RH WIND       PRES   REMARKS
BELLEVILLE     CLOUDY    43  33  65 SE8       30.07F
CAHOKIA*       CLOUDY    43  33  68 SE14      30.07F
SPARTA*        CLOUDY    42  31  66 SE12      30.09F
$$

ILZ064>066-069>071-074>076-080>082-084>086-088>090-092>094-212100-
SOUTH-CENTRAL ILLINOIS

CITY           SKY/WX    TMP DP  RH WIND       PRES   REMARKS
CARBONDALE     CLOUDY    45  29  53 SE6       30.10F
CAIRO*         PTSUNNY   49  35  56 NE5       30.09F
EFFINGHAM*     PTSUNNY   42  26  54 SE10      30.13F
MARION         PTSUNNY   46  32  57 SE12      30.10F
MT. VERNON     PTSUNNY   45  30  57 E7        30.11F
CENTRALIA*     CLOUDY    42  26  53 SE9       30.10F
SALEM*         MOSUNNY   44  27  50 SE6       30.11F
METROPOLIS*    SUNNY     48  34  57 SE5       30.10F
$$

ILZ067-068-072-073-078-083-087-091-212100-
SOUTHEAST ILLINOIS

CITY           SKY/WX    TMP DP  RH WIND       PRES   REMARKS
LAWRENCEVILLE  MOSUNNY   41  30  65 SE6       30.15F
FLORA*         MOSUNNY   41  29  63 SE7       30.13F
FAIRFIELD*     PTSUNNY   43  30  60 SE7       30.12F
HARRISBURG*    MOSUNNY   45  32  62 E3        30.13F
ROBINSON*      MOSUNNY   39  30  69 SE8       30.16F WCI  34
CARMI*         MOSUNNY   46  32  58 E7        30.13F
$$

ABBREVIATIONS USED IN REMARKS
   TC - TEMPERATURE IN CELSIUS
  WCI - WIND CHILL INDEX
   HX - HEAT INDEX
  VSB - VISIBILITY
$$



USA.gov is the U.S. government's official web portal to all federal, state and local government web resources and services.